www.pogodaiklimat.ru

Погода и климат >> Архив погоды >> Россия >> Магаданская область >> Коркодон


ПОГОДА в Коркодоне

  • Прогноз погоды в Коркодоне
  • Монитор погоды в Коркодоне

АРХИВ ПОГОДЫ в Коркодоне

Время (UTC), дата Ветер
(напр.,м/с)
 
Видим.   Явления Облачность Т
(С)
Тd
(С)
f
(%)
Тe
(С)
Тes
(С)
Комфортность P
(гПа)
Po
(гПа)
Тmin
(С)
Tmax
(С)
R
(мм)
R24
(мм)
S
(см)
18 19.05 СЗ 1 10 км слаб. ливневой снег 10/10 600 м
[Cb cap]
-1.8 -3.5 88 -4 -4 1005.2 992.8
21 19.05 С 3 4000 м слаб. ливневой снег {метель} 10/10 600 м
[Cb cap]
-1.9 -5.4 77 -7 -7 1005.7 993.2 -2.2 3 2
00 20.05 З 2 10 км слаб. ливневой снег {метель} 10/10 600 м
[Cb cap]
-1.2 -5.3 74 -5 -5 1007.2 994.8
03 20.05 З 2 50 км {ливн. осадки} 9/9 600 м
[Cb cap]
-0.1 -6.4 62 -3 -2 1009.3 996.9
06 20.05 З 3 20 км слаб. ливневой снег 10/10 600 м
[Cb cap]
-1.8 -6.5 70 -7 -7 1012.3 999.8
09 20.05 З 2 20 км слаб. ливневой снег 10/10 600 м
[Cb cap]
-2.4 -6.9 71 -6 -6 1015.5 1002.9 +0.1 0.5
12 20.05 СЗ 1 50 км {ливн. осадки} 6/3 1000 м
[Cb cap Ci fib]
-4.0 -8.3 72 -6 -6 1018.4 1005.7
15 20.05 СВ 1 50 км 6/6 1000 м
[Sc]
-5.6 -8.3 81 -8 -8 1020.7 1007.9
18 20.05 З 1 50 км 8/8 1000 м
[Cb cap]
-4.7 -7.1 83 -7 -7 1022.1 1009.3
21 20.05 З 1 50 км 8/8 1000 м
[Cb cap]
-2.8 -7.8 68 -5 -4 1023.1 1010.5 -5.7 0.0 2
00 21.05 В 2 50 км 3/3 1000 м
[Cu med, cong]
+1.3 -6.5 56 -2 +6 1022.6 1010.2
03 21.05 ЮВ 3 50 км ясно +4.9 -6.7 43 +2 +11 опасность
простуды
1021.4 1009.1
06 21.05 ЮВ 3 50 км ясно +7.2 -6.9 36 +5 +10 1020.7 1008.5
09 21.05 Ю 2 50 км ясно +7.2 -6.5 37 +6 +7 1021.1 1008.9 +7.5
12 21.05 СВ 2 50 км ясно -0.3 -4.7 72 -4 -4 1021.9 1009.3
15 21.05 В 1 50 км ясно -3.9 -5.4 89 -6 -6 1022.5 1009.8
18 21.05 СВ 1 50 км 3/0
[Ci fib]
-3.8 -4.9 92 -6 -6 1022.3 1009.6
21 21.05 В 3 50 км 6/0
[Ci fib]
+6.9 -4.2 45 +5 +8 1021.1 1008.9 -5.0
00 22.05 В 2 50 км 8/0
[Ci fib]
+12.1 -5.9 28 +12 +20 1019.4 1007.4
03 22.05 Ю 3 50 км 9/0
[Ci fib]
+14.5 -3.4 29 +14 +21 1017.0 1005.1
06 22.05 Ю 1 50 км 9/3 1000 м
[Sc Ci fib]
+14.3 -2.2 32 +15 +19 1015.6 1003.7
09 22.05 ЮВ 2 50 км 9/3 1000 м
[Sc Ac trans Ci fib]
+14.0 -0.9 36 +14 +14 1014.6 1002.8 +15.3
12 22.05 штиль 0 50 км 9/9 1000 м
[Sc]
+8.0 -0.1 57 +8 +8 1012.6 1000.6
15 22.05 В 2 50 км 9/9 1000 м
[Sc]
+10.0 -0.5 48 +9 +9 1010.4 998.5
18 22.05 СВ 3 50 км 9/9 1000 м
[Cb cap]
+8.2 +4.0 75 +6 +6 1007.9 995.9
21 22.05 СВ 2 50 км {ливн. осадки} 9/9 1000 м
[Cb cap]
+9.1 +5.6 79 +7 +8 1005.5 993.5 +7.5 0.7
00 23.05 Ю 4
{10}
50 км {ливн. осадки} 5/5 1000 м
[Cb cap]
+14.6 +4.5 51 +14 +17 1003.2 991.5
03 23.05 ЮВ 3
{11}
50 км 9/4 1000 м
[Cu med, cong Ci fib]
+18.8 +4.1 38 +19 +24 1000.9 989.4
06 23.05 Ю 4
{10}
50 км 9/6 1000 м
[Cu med, cong Ci fib]
+19.5 +2.3 32 +20 +21 999.4 988.0
09 23.05 ЮВ 3
{12}
50 км 9/6 1000 м
[Sc Ac lent Ci fib]
+15.1 +3.6 46 +15 +15 1000.1 988.4 +19.6
12 23.05 В 2 50 км 9/4 1000 м
[Cb cap Ci fib]
+10.2 +6.0 75 +9 +9 1001.8 989.9
15 23.05 В 1 50 км 9/8 600 м
[Cb cap Ci fib]
+9.2 +4.8 74 +9 +9 1001.2 989.3
18 23.05 В 1 50 км 9/8 600 м
[Cb cap Ci fib]
+8.0 +4.4 78 +7 +7 1000.1 988.2
21 23.05 ЮВ 1 20 км слаб. ливневой дождь 9/8 600 м
[Cb cap Ci fib]
+9.6 +5.2 74 +9 +10 999.0 987.2 +7.4 0.0
00 24.05 Ю 5-10
{10}
50 км {ливн. осадки} 8/6 600 м
[Cb cap Ci fib]
+12.7 +3.9 55 +11 +13 997.9 986.2
03 24.05 Ю 2
{10}
20 км слаб. ливневой дождь 9/9 1000 м
[Cb cap]
+10.5 +5.3 70 +9 +10 998.0 986.3
06 24.05 ЮЗ 3 50 км {ливн. осадки} 9/8 1000 м
[Sc Ci fib]
+15.1 -1.1 33 +15 +16 996.9 985.3
09 24.05 Ю 3 20 км слаб. ливневой дождь 9/9 1000 м
[Cb cap]
+12.7 +5.4 61 +11 +12 997.9 986.2 +15.8 0.3
12 24.05 В 2 50 км {ливн. осадки} 9/9 1000 м
[Cb cap]
+10.2 +6.2 76 +9 +9 999.1 987.3
15 24.05 ЮВ 1 50 км 9/9 1000 м
[Cb cap]
+10.1 +2.9 61 +10 +10 1000.5 988.7
18 24.05 ЮВ 3
{10}
50 км 6/4 1000 м
[Cb cap Ci fib]
+9.0 +1.9 61 +7 +7 1001.7 989.8
21 24.05 ЮВ 3 50 км 6/4 1000 м
[Cb cap Ci fib]
+11.1 +2.4 55 +10 +12 1002.2 990.4 +8.9 0.0
00 25.05 ЮВ 4 50 км 9/3 1000 м
[Cb cap Ac lent Ci fib]
+12.8 +4.0 55 +11 +14 1002.4 990.6
03 25.05 В 1 50 км {ливн. осадки} 9/8 1000 м
[Cb cap Ci fib]
+14.1 +4.4 52 +15 +17 1002.2 990.6
06 25.05 ЮВ 3 50 км {ливн. осадки} 8/8 1000 м
[Cb cap]
+17.0 +4.0 42 +17 +18 1001.4 989.8
09 25.05 штиль 0 50 км 9/8 1000 м
[Cb cap Ci fib]
+15.9 +3.7 44 +16 +16 1001.8 990.2 +17.5 0.0
12 25.05 штиль 0 50 км 9/9 1000 м
[Cb cap]
+10.8 +6.0 72 +10 +10 1003.1 991.3
15 25.05 СЗ 1 50 км 8/4 1000 м
[Sc Ci fib]
+4.0 +3.3 95 +2 +2 1004.1 992.0
18 25.05 штиль 0 50 км местами туман поземный 9/4 1000 м
[Sc Ci fib]
+2.1 +1.7 97 +1 +1 1005.1 992.9
21 25.05 ЮЗ 1 50 км 9/6 1000 м
[Sc Ac trans Ci fib]
+9.3 +5.3 76 +9 +10 1005.6 993.7 +1.5
00 26.05 З 1 50 км 9/4 1000 м
[Sc Ac trans Ci fib]
+16.1 +6.0 51 +17 +21 1004.7 993.1
03 26.05 З 3 50 км в посл. час гроза 9/6 1000 м
[Cb cap Ac trans Ci fib]
+15.7 +5.9 52 +15 +18 1004.7 993.1
06 26.05 штиль 0 10 км слаб. ливневой дождь {гроза} 10/10 600 м
[Cb cap]
+11.4 +10.1 92 +11 +11 1005.9 994.1
09 26.05 С 1 10 км слаб. ливневой дождь 10/10 1000 м
[Cb cap]
+10.7 +8.5 86 +10 +10 1006.3 994.4 +17.8 4
12 26.05 ЮВ 1 20 км слаб. ливневой дождь 10/10 1000 м
[Cb cap]
+9.3 +8.5 95 +9 +9 1007.5 995.6
15 26.05 СВ 1 10 км слаб. ливневой дождь 10/10 1000 м
[Cb cap]
+8.4 +6.7 89 +8 +8 1008.0 996.0

 

Местоположение метеостанции Коркодон (Магаданская область, Россия): широта 64.75 долгота 153.90 высота над уровнем моря 99 м.

В архиве по умолчанию представлена погода в Коркодоне за последнюю неделю. Архивные данные за месяц целиком и за предыдущие месяцы, начиная с января 2011 года, Вы можете получить, выбрав интересующий диапазон дат из раскрывающегося списка и нажав кнопку "Ввод!".


*Определитесь, кто Вы:
робот инопланетянин человек

Внимание! Время в таблицах - всемирное. Для получения местного времени необходимо прибавить поправку, которая равна 11 ч.

Смотрите также архив погоды в соседних городах и на ближайших метеорологических станциях:

Погода в Балыгычане (Магаданская область, Россия) (94 км)
Погода в Зырянке (Якутия, Россия) (177 км)
Погода в Сеймчане (Магаданская область, Россия) (217 км)
Погода в Омсукчане (Магаданская область, Россия) (265 км)
Погода в Среднекане (Магаданская область, Россия) (268 км)
Погода в Совхозе Эльген (Магаданская область, Россия) (271 км)
Погода в Лабазной (Магаданская область, Россия) (276 км)
Погода в Среднеколымске (Якутия, Россия) (300 км)
Погода в Омолоне (Чукотка, Россия) (315 км)
Погода в Ягодной (Магаданская область, Россия) (327 км)

Пояснения к столбцам:

Ветер - указаны скорость ветра в м/с - средняя за 10 мин, порывы в срок и между сроками (в фигурных скобках) и направление, откуда дует ветер: С - северный, СВ - северо-восточный, В - восточный, ЮВ - юго-восточный, Ю - южный, ЮЗ - юго-западный, З - западный, СЗ - северо-западный.
Видимость - горизонтальная дальность видимости в метрах или километрах. При видимости от 1 до 10 км при отсутствии осадков обычно наблюдается дымка, при ухудшении видимости до 1 км и менее - туман. В сухую погоду видимость может ухудшаться дымом, пылью или мглою.
Явления - указаны атмосферные явления, наблюдавшиеся в срок или в последний час перед сроком; фигурными скобками обозначены явления, наблюдавшиеся между сроками (за 1-3 часа до срока); квадратными скобками обозначены град или гололедные отложения с указанием их диаметра в мм.
Облачность - указаны через наклонную черту общая и нижняя облачность в баллах и высота нижней границы облаков в метрах; квадратными скобками обозначены формы облаков: Ci - перистые, Cs - перисто-слоистые, Cc - перисто-кучевые, Ac - высококучевые, As - высокослоистые, Sc - слоисто-кучевые, Ns - слоисто-дождевые, Cu - кучевые, Cb - кучево-дождевые. Подробнее классификацию облаков см. в Атласе облаков (PDF).
T - Температура воздуха - температура, измеренная на высоте 2 м над землей.
Td - Температура точки росы - температура, при понижении до которой содержащийся в воздухе водяной пар достигнет насыщения.
f - Относительная влажность воздуха - влажноcть воздуха, измеренная на высоте 2 м над землей.
Te - Эффективная температура - температура, которую ощущает одетый по сезону человек в тени. Характеристика душности погоды. При расчете учитывается влияние влажности воздуха и скорости ветра на теплоощущения человека.
Tes - Эффективная температура на солнце - температура, которую ощущает человек, с поправкой на солнечный нагрев. Характеристика знойности погоды. Зависит от высоты солнца над горизонтом, облачности и скорости ветра. Ночью, в пасмурную погоду, а также при ветре 12 м/с и более поправка равна нулю.
P - Атмосферное давление - приведенное к уровню моря атмосферное давление.
Po - Атмосферное давление - измеренное на уровне метеостанции атмосферное давление.
Tmin - Минимальная температура - минимум температуры воздуха на высоте 2 м над землей.
Tmax - Максимальная температура - максимум температуры воздуха на высоте 2 м над землей.
R - Количество осадков - Количество выпавших осадков за период времени, мм. При наведении курсора мыши на число - период времени, за который выпало указанное количество осадков.
R24 - Количество осадков - Количество выпавших осадков за 24 часа, мм.
S - Снежный покров - Высота снежного покрова, см. При наведении курсора мыши на число - состояние снежного покрова и степень покрытия местности в баллах.